Flag for French Polynesia Weather past 2 weeks in Papeete, Tahiti, French Polynesia

Now
77 °F

Passing clouds.


Feels Like: 79 °F
Forecast: 74 / 82 °F
Wind: 6 mph from South

Location: Tahiti-Faaa

Current Time: Jul 31, 2015 at 7:50:09 PM

Latest Report: Jul 31, 2015 at 7:30 PM


Visibility: N/A

Pressure: 29.86 "Hg

Humidity: 74%

Dew point: 68 °F

Location of PapeeteLocation

Historic Weather in Papeete — Graph

°F

Papeete temperature yesterday

Maximum temperature yesterday: 82 °F (at 11:30 AM)
Minimum temperature yesterday: 70 °F (at 4:30 AM)
Average temperature yesterday: 76 °F

Past Weeks' High & Low Weather Summary

 TemperatureHumidityPressure
High86 °F (Jul 20, 3:30 PM)94% (Jul 16, 10:30 PM)30.07 "Hg (Jul 16, 10:30 PM)
Low70 °F (Jul 30, 4:30 AM)51% (Jul 27, 10:00 AM)29.83 "Hg (Jul 27, 3:30 PM)
Average78 °F76%29.94 "Hg
* Reported Jul 16 7:00 PM — Jul 31 7:00 PM, Papeete, Weather by CustomWeather, © 2015

Note: Actual official high and low records may vary slightly from our data, if they occured in-between our weather recording intervals... More about our weather records

Advertising

Papeete weather history for previous 24 hours

 ConditionsComfort  
Time TempWeatherWind HumidityBarometerVisibility
7:00 PM
Fri, Jul 31
77 °FPartly cloudy.5 mph74%29.86 "HgN/A
6:00 PM77 °FPassing clouds.6 mph74%29.86 "HgN/A
5:30 PM77 °FScattered clouds.2 mph74%29.83 "HgN/A
5:00 PM77 °FPartly sunny.2 mph79%29.83 "HgN/A
4:30 PM77 °FBroken clouds.2 mph79%29.83 "HgN/A
4:13 PM77 °FScattered showers. Broken clouds.3 mph79%29.83 "HgN/A
3:30 PM77 °FScattered showers. Broken clouds.8 mph79%29.86 "HgN/A
3:00 PM77 °FScattered showers. Broken clouds.9 mph79%29.86 "HgN/A
2:30 PM77 °FScattered showers. Broken clouds.13 mph79%29.86 "HgN/A
2:00 PM79 °FScattered showers. More clouds than sun.14 mph74%29.86 "HgN/A
1:30 PM79 °FScattered showers. More clouds than sun.12 mph74%29.86 "HgN/A
1:00 PM81 °FScattered showers. More clouds than sun.8 mph66%29.86 "HgN/A
12:30 PM81 °FScattered showers. More clouds than sun.6 mph66%29.89 "HgN/A
12:00 PM81 °FScattered showers. More clouds than sun.6 mph66%29.89 "HgN/A
11:30 AM81 °FScattered showers. Broken clouds.5 mph66%29.89 "HgN/A
11:00 AM81 °FScattered showers. Partly sunny.1 mph66%29.89 "HgN/A
10:30 AM81 °FPartly sunny.3 mph62%29.92 "HgN/A
10:00 AM81 °FPartly sunny.3 mph66%29.92 "HgN/A
9:30 AM81 °FScattered clouds.3 mph66%29.92 "HgN/A
9:00 AM81 °FPassing clouds.3 mph62%29.92 "HgN/A
8:30 AM79 °FPassing clouds.3 mph65%29.89 "HgN/A
8:00 AM77 °FPassing clouds.2 mph69%29.89 "HgN/A
7:30 AM73 °FPassing clouds.2 mph78%29.89 "HgN/A
7:00 AM72 °FPassing clouds.2 mph78%29.86 "HgN/A
6:30 AM72 °FPassing clouds.5 mph78%29.86 "HgN/A
6:00 AM72 °FPassing clouds.5 mph83%29.86 "HgN/A
5:30 AM72 °FMild.6 mph83%29.83 "HgN/A
5:00 AM70 °FMild.5 mph88%29.83 "HgN/A
4:30 AM72 °FMild.3 mph83%29.83 "HgN/A
4:00 AM72 °FMild.5 mph83%29.83 "HgN/A
3:30 AM72 °FPassing clouds.3 mph83%29.83 "HgN/A
3:00 AM73 °FPassing clouds.2 mph78%29.83 "HgN/A
2:30 AM73 °FPassing clouds.3 mph78%29.83 "HgN/A
2:00 AM73 °FPassing clouds.3 mph83%29.86 "HgN/A
1:30 AM73 °FPassing clouds.2 mph83%29.86 "HgN/A
1:00 AM73 °FPassing clouds.2 mph78%29.86 "HgN/A
12:30 AM72 °FPassing clouds.2 mph83%29.89 "HgN/A
12:00 AM72 °FPassing clouds.No wind83%29.89 "HgN/A
11:30 PM
Thu, Jul 30
72 °FPassing clouds.5 mph83%29.89 "HgN/A
11:00 PM72 °FPassing clouds.2 mph83%29.89 "HgN/A
10:30 PM72 °FPassing clouds.No wind83%29.89 "HgN/A
10:00 PM73 °FPassing clouds.2 mph83%29.89 "HgN/A
9:30 PM73 °FPassing clouds.2 mph83%29.89 "HgN/A
9:00 PM73 °FPassing clouds.3 mph83%29.89 "HgN/A
8:30 PM75 °FPassing clouds.3 mph78%29.89 "HgN/A
8:00 PM75 °FPassing clouds.5 mph78%29.89 "HgN/A
7:30 PM77 °FPassing clouds.3 mph74%29.86 "HgN/A
7:00 PM77 °FPassing clouds.5 mph74%29.86 "HgN/A
Weather by CustomWeather, © 2015

See weather overviewHow to use our weather pages